TimePDT,TemperatureF,Dew PointF,Humidity,Sea Level PressureIn,VisibilityMPH,Wind Direction,Wind SpeedMPH,Gust SpeedMPH,PrecipitationIn,Events,Conditions,WindDirDegrees,DateUTC
12:53 AM,57.0,52.0,83,30.02,10.0,NNW,10.4,-,N/A,,Clear,330,2012-11-02 07:53:00
1:53 AM,55.9,50.0,80,30.02,10.0,NW,9.2,-,N/A,,Clear,320,2012-11-02 08:53:00
2:53 AM,54.0,48.0,80,30.03,10.0,NNW,5.8,-,N/A,,Clear,340,2012-11-02 09:53:00
3:53 AM,54.0,48.0,80,30.02,10.0,Calm,Calm,-,N/A,,Clear,0,2012-11-02 10:53:00
4:53 AM,50.0,46.9,89,30.03,6.0,North,-9999.0,-,N/A,,Clear,0,2012-11-02 11:53:00
5:44 AM,48.2,46.4,93,30.03,1.8,Calm,Calm,-,N/A,,Partly Cloudy,0,2012-11-02 12:44:00
5:53 AM,48.0,45.0,89,30.03,1.2,Calm,Calm,-,N/A,,Partly Cloudy,0,2012-11-02 12:53:00
6:08 AM,48.2,46.4,93,30.03,2.5,Calm,Calm,-,N/A,,Clear,0,2012-11-02 13:08:00
6:16 AM,48.2,46.4,93,30.03,5.0,Calm,Calm,-,N/A,,Clear,0,2012-11-02 13:16:00
6:53 AM,46.9,45.0,93,30.04,6.0,Calm,Calm,-,N/A,,Clear,0,2012-11-02 13:53:00
7:53 AM,48.0,46.0,93,30.05,5.0,Calm,Calm,-,N/A,,Clear,0,2012-11-02 14:53:00
8:45 AM,51.8,48.2,88,30.07,8.0,WNW,3.5,-,N/A,,Partly Cloudy,300,2012-11-02 15:45:00
8:53 AM,52.0,48.0,86,30.07,9.0,NW,3.5,-,N/A,,Mostly Cloudy,320,2012-11-02 15:53:00
9:42 AM,53.6,51.8,94,30.06,1.8,North,6.9,-,N/A,,Overcast,350,2012-11-02 16:42:00
9:53 AM,54.0,51.1,90,30.07,2.0,NNW,8.1,-,N/A,,Overcast,330,2012-11-02 16:53:00
10:11 AM,55.4,51.8,88,30.07,3.0,North,8.1,-,N/A,,Overcast,350,2012-11-02 17:11:00
10:43 AM,55.4,51.8,88,30.08,5.0,North,6.9,-,N/A,,Haze,350,2012-11-02 17:43:00
10:53 AM,55.9,51.1,84,30.07,5.0,NNE,4.6,-,N/A,,Haze,30,2012-11-02 17:53:00
11:29 AM,-9999,-9999,N/A,30.07,-9999.0,North,-9999.0,-,N/A,,Unknown,0,2012-11-02 18:29:00
11:53 AM,-9999,-9999,N/A,30.06,-9999.0,North,-9999.0,-,N/A,,Unknown,0,2012-11-02 18:53:00
12:53 PM,64.9,52.0,63,30.04,10.0,North,4.6,-,N/A,,Clear,350,2012-11-02 19:53:00
1:53 PM,66.9,52.0,59,30.01,10.0,Variable,5.8,-,N/A,,Clear,0,2012-11-02 20:53:00
2:53 PM,69.1,52.0,54,30.00,10.0,NNW,10.4,-,N/A,,Clear,330,2012-11-02 21:53:00
3:53 PM,71.1,53.1,53,30.01,10.0,North,10.4,-,N/A,,Clear,360,2012-11-02 22:53:00
4:53 PM,70.0,53.1,55,30.01,10.0,NNW,9.2,-,N/A,,Clear,340,2012-11-02 23:53:00
5:53 PM,68.0,53.1,59,30.01,10.0,North,5.8,-,N/A,,Clear,360,2012-11-03 00:53:00
6:53 PM,66.0,52.0,60,30.01,10.0,Calm,Calm,-,N/A,,Clear,0,2012-11-03 01:53:00
7:53 PM,61.0,52.0,72,30.02,10.0,Calm,Calm,-,N/A,,Clear,0,2012-11-03 02:53:00
8:53 PM,59.0,51.1,75,30.03,10.0,WNW,3.5,-,N/A,,Clear,300,2012-11-03 03:53:00
9:53 PM,57.0,51.1,81,30.04,10.0,NW,4.6,-,N/A,,Clear,310,2012-11-03 04:53:00
10:53 PM,55.9,51.1,84,30.05,9.0,NNW,4.6,-,N/A,,Clear,330,2012-11-03 05:53:00
11:53 PM,55.9,51.1,84,30.05,8.0,Calm,Calm,-,N/A,,Clear,0,2012-11-03 06:53:00